H1 CPF 2 NER 2025 12 15 9 349 01 glonass131 H2 1301901 9131 39155 2025 12 15 0 0 0 2025 12 18 23 45 0 900 1 1 0 0 0 1 H9 10 0 61024 0.00000 0 22430975.790 3762347.351 11672226.597 10 0 61024 900.00000 0 20826765.575 3769400.650 14340940.298 10 0 61024 1800.00000 0 18922190.660 3950461.912 16732977.380 10 0 61024 2700.00000 0 16770947.805 4338772.993 18802222.406 10 0 61024 3600.00000 0 14434054.748 4956914.812 20508748.478 10 0 61024 4500.00000 0 11977473.192 5815658.694 21819571.343 10 0 61024 5400.00000 0 9469542.809 6913316.476 22709276.250 10 0 61024 6300.00000 0 6978329.848 8235617.283 23160506.682 10 0 61024 7200.00000 0 4568997.371 9756117.844 23164306.064 10 0 61024 8100.00000 0 2301303.521 11437131.778 22720305.718 10 0 61024 9000.00000 0 227329.396 13231142.320 21836754.471 10 0 61024 9900.00000 0 -1610470.561 15082643.201 20530387.669 10 0 61024 10800.00000 0 -3180815.254 16930334.491 18826135.857 10 0 61024 11700.00000 0 -4464676.062 18709585.077 16756676.004 10 0 61024 12600.00000 0 -5455842.348 20355061.460 14361831.069 10 0 61024 13500.00000 0 -6160948.110 21803414.549 11687826.627 10 0 61024 14400.00000 0 -6598956.725 22995912.416 8786416.421 10 0 61024 15300.00000 0 -6800123.517 23880907.831 5713891.809 10 0 61024 16200.00000 0 -6804478.219 24416035.151 2529993.103 10 0 61024 17100.00000 0 -6659890.399 24570041.465 -703256.461 10 0 61024 18000.00000 0 -6419799.470 24324171.651 -3922770.892 10 0 61024 18900.00000 0 -6140706.145 23673045.568 -7065650.651 10 0 61024 19800.00000 0 -5879533.369 22624987.185 -10070434.551 10 0 61024 20700.00000 0 -5690971.101 21201789.168 -12878327.363 10 0 61024 21600.00000 0 -5624920.608 19437921.017 -15434376.445 10 0 61024 22500.00000 0 -5724149.917 17379213.325 -17688571.706 10 0 61024 23400.00000 0 -6022262.975 15081073.724 -19596844.915 10 0 61024 24300.00000 0 -6542071.305 12606310.613 -21121946.872 10 0 61024 25200.00000 0 -7294439.158 10022657.755 -22234183.928 10 0 61024 26100.00000 0 -8277652.249 7400105.676 -22911998.761 10 0 61024 27000.00000 0 -9477337.083 4808153.690 -23142384.122 10 0 61024 27900.00000 0 -10866933.809 2313099.222 -22921122.154 10 0 61024 28800.00000 0 -12408701.470 -24521.171 -22252845.860 10 0 61024 29700.00000 0 -14055211.642 -2152232.031 -21150923.210 10 0 61024 30600.00000 0 -15751265.702 -4027565.269 -19637168.139 10 0 61024 31500.00000 0 -17436153.231 -5619573.024 -17741386.174 10 0 61024 32400.00000 0 -19046155.003 -6909846.710 -15500765.697 10 0 61024 33300.00000 0 -20517184.370 -7893003.166 -12959128.676 10 0 61024 34200.00000 0 -21787455.566 -8576621.553 -10166057.279 10 0 61024 35100.00000 0 -22800067.201 -8980637.748 -7175914.808 10 0 61024 36000.00000 0 -23505393.435 -9136225.619 -4046781.066 10 0 61024 36900.00000 0 -23863184.076 -9084215.559 -839323.490 10 0 61024 37800.00000 0 -23844287.485 -8873119.443 2384373.863 10 0 61024 38700.00000 0 -23431926.443 -8556846.888 5562001.204 10 0 61024 39600.00000 0 -22622475.748 -8192209.672 8632211.507 10 0 61024 40500.00000 0 -21425711.001 -7836319.108 11535784.957 10 0 61024 41400.00000 0 -19864519.695 -7543984.929 14216748.629 10 0 61024 42300.00000 0 -17974087.316 -7365223.405 16623431.729 10 0 61024 43200.00000 0 -15800592.438 -7342977.574 18709438.335 10 0 61024 44100.00000 0 -13399464.115 -7511143.417 20434521.130 10 0 61024 45000.00000 0 -10833272.298 -7892983.224 21765341.352 10 0 61024 45900.00000 0 -8169336.393 -8499991.737 22676102.094 10 0 61024 46800.00000 0 -5477148.125 -9331262.490 23149043.949 10 0 61024 47700.00000 0 -2825712.470 -10373381.756 23174794.070 10 0 61024 48600.00000 0 -280913.807 -11600856.371 22752561.763 10 0 61024 49500.00000 0 2096986.200 -12977060.272 21890175.928 10 0 61024 50400.00000 0 4255617.177 -14455663.429 20603961.988 10 0 61024 51300.00000 0 6152442.059 -15982486.988 18918458.415 10 0 61024 52200.00000 0 7756292.072 -17497710.462 16865975.599 10 0 61024 53100.00000 0 9048430.122 -18938341.531 14486002.718 10 0 61024 54000.00000 0 10023096.869 -20240847.067 11824471.164 10 0 61024 54900.00000 0 10687514.844 -21343836.124 8932886.231 10 0 61024 55800.00000 0 11061348.425 -22190682.009 5867341.905 10 0 61024 56700.00000 0 11175640.539 -22731971.923 2687436.572 10 0 61024 57600.00000 0 11071269.537 -22927678.635 -544889.733 10 0 61024 58500.00000 0 10796990.683 -22748959.610 -3766573.415 10 0 61024 59400.00000 0 10407145.360 -22179504.152 -6914675.738 10 0 61024 60300.00000 0 9959136.081 -21216368.233 -9927635.281 10 0 61024 61200.00000 0 9510776.354 -19870258.565 -12746497.430 10 0 61024 62100.00000 0 9117630.384 -18165251.488 -15316094.195 10 0 61024 63000.00000 0 8830458.471 -16137956.895 -17586148.576 10 0 61024 63900.00000 0 8692879.484 -13836161.838 -19512279.391 10 0 61024 64800.00000 0 8739352.249 -11317011.254 -21056884.924 10 0 61024 65700.00000 0 8993563.580 -8644803.376 -22189886.740 10 0 61024 66600.00000 0 9467292.603 -5888494.036 -22889318.394 10 0 61024 67500.00000 0 10159799.963 -3119016.332 -23141747.547 10 0 61024 68400.00000 0 11057767.368 -406529.573 -22942523.934 10 0 61024 69300.00000 0 12135788.924 2182286.159 -22295849.521 10 0 61024 70200.00000 0 13357391.811 4586776.228 -21214671.204 10 0 61024 71100.00000 0 14676541.189 6754592.474 -19720400.062 10 0 61024 72000.00000 0 16039563.769 8643615.075 -17842464.799 10 0 61024 72900.00000 0 17387407.002 10223437.275 -15617710.178 10 0 61024 73800.00000 0 18658137.222 11476354.041 -13089654.199 10 0 61024 74700.00000 0 19789570.528 12397816.985 -10307620.292 10 0 61024 75600.00000 0 20721925.439 12996340.578 -7325762.908 10 0 61024 76500.00000 0 21400386.129 13292867.624 -4202006.525 10 0 61024 77400.00000 0 21777469.553 13319624.350 -996919.424 10 0 61024 78300.00000 0 21815098.646 13118516.330 2227455.814 10 0 61024 79200.00000 0 21486296.564 12739134.989 5408792.723 10 0 61024 80100.00000 0 20776432.905 12236459.770 8485670.015 10 0 61024 81000.00000 0 19683971.855 11668353.047 11398737.697 10 0 61024 81900.00000 0 18220692.327 11092952.385 14091839.353 10 0 61024 82800.00000 0 16411371.837 10566068.445 16513070.926 10 0 61024 83700.00000 0 14292947.578 10138696.020 18615757.861 10 0 61024 84600.00000 0 11913188.830 9854740.547 20359334.001 10 0 61024 85500.00000 0 9328934.427 9749053.552 21710107.372 10 0 61025 0.00000 0 6603966.307 9845857.746 22641899.828 10 0 61025 900.00000 0 3806602.953 10157627.041 23136549.903 10 0 61025 1800.00000 0 1007112.862 10684468.213 23184268.670 10 0 61025 2700.00000 0 -1724952.933 11414031.290 22783843.305 10 0 61025 3600.00000 0 -4323398.224 12321954.261 21942682.232 10 0 61025 4500.00000 0 -6727883.440 13372826.210 20676699.926 10 0 61025 5400.00000 0 -8886189.594 14521631.739 19010041.285 10 0 61025 6300.00000 0 -10756151.100 15715619.540 16974648.190 10 0 61025 7200.00000 0 -12307176.855 16896519.845 14609673.715 10 0 61025 8100.00000 0 -13521295.162 18003020.244 11960752.445 10 0 61025 9000.00000 0 -14393677.164 18973397.402 9079138.388 10 0 61025 9900.00000 0 -14932614.830 19748194.491 6020725.182 10 0 61025 10800.00000 0 -15158952.341 20272830.799 2844966.245 10 0 61025 11700.00000 0 -15104993.034 20500031.706 -386284.632 10 0 61025 12600.00000 0 -14812926.816 20391973.639 -3609989.254 10 0 61025 13500.00000 0 -14332844.096 19922050.070 -6763172.613 10 0 61025 14400.00000 0 -13720420.810 19076180.244 -9784175.829 10 0 61025 15300.00000 0 -13034373.998 17853601.873 -12613887.482 10 0 61025 16200.00000 0 -12333797.971 16267111.239 -15196926.544 10 0 61025 17100.00000 0 -11675496.652 14342738.330 -17482751.114 10 0 61025 18000.00000 0 -11111428.108 12118869.346 -19426668.711 10 0 61025 18900.00000 0 -10686372.294 9644853.185 -20990726.392 10 0 61025 19800.00000 0 -10435923.106 6979150.988 -22144461.857 10 0 61025 20700.00000 0 -10384891.372 4187107.674 -22865500.083 10 0 61025 21600.00000 0 -10546187.042 1338440.548 -23139983.824 10 0 61025 22500.00000 0 -10920227.677 -1495448.221 -22962830.191 10 0 61025 23400.00000 0 -11494897.173 -4244221.306 -22337809.525 10 0 61025 24300.00000 0 -12246054.706 -6841302.305 -21277446.638 10 0 61025 25200.00000 0 -13138570.172 -9226405.460 -19802748.365 10 0 61025 26100.00000 0 -14127839.954 -11347794.071 -17942764.825 10 0 61025 27000.00000 0 -15161716.659 -13164175.028 -15733995.093 10 0 61025 27900.00000 0 -16182769.345 -14646152.870 -13219650.871 10 0 61025 28800.00000 0 -17130777.321 -15777185.868 -10448794.356 10 0 61025 29700.00000 0 -17945351.513 -16554007.918 -7475368.547 10 0 61025 30600.00000 0 -18568572.738 -16986502.555 -4357139.974 10 0 61025 31500.00000 0 -18947536.315 -17097038.191 -1154575.107 10 0 61025 32400.00000 0 -19036697.097 -16919295.927 2070327.576 10 0 61025 33300.00000 0 -18799917.934 -16496641.836 5255227.510 10 0 61025 34200.00000 0 -18212137.460 -15880114.014 8338631.714 10 0 61025 35100.00000 0 -17260589.133 -15126109.780 11261062.502 10 0 61025 36000.00000 0 -15945522.023 -14293870.014 13966182.328 10 0 61025 36900.00000 0 -14280394.444 -13442865.357 16401856.117 10 0 61025 37800.00000 0 -12291532.574 -12630192.156 18521132.703 10 0 61025 38700.00000 0 -10017267.954 -11908085.325 20283128.811 10 0 61025 39600.00000 0 -7506588.560 -11321650.200 21653800.645 10 0 61025 40500.00000 0 -4817357.200 -10906906.253 22606589.968 10 0 61025 41400.00000 0 -2014168.342 -10689223.092 23122933.561 10 0 61025 42300.00000 0 834071.067 -10682213.442 23192626.880 10 0 61025 43200.00000 0 3656740.056 -10887129.556 22814034.871 10 0 61025 44100.00000 0 6384177.082 -11292789.426 21994145.039 10 0 61025 45000.00000 0 8950320.593 -11876037.842 20748460.151 10 0 61025 45900.00000 0 11295209.383 -12602725.628 19100730.473 10 0 61025 46800.00000 0 13367240.247 -13429169.019 17082528.005 10 0 61025 47700.00000 0 15125089.320 -14304031.005 14732668.031 10 0 61025 48600.00000 0 16539216.395 -15170548.278 12096486.302 10 0 61025 49500.00000 0 17592887.993 -15969012.108 9224983.171 10 0 61025 50400.00000 0 18282674.296 -16639399.675 6173849.225 10 0 61025 51300.00000 0 18618396.899 -17124044.771 3002389.931 10 0 61025 52200.00000 0 18622527.425 -17370233.876 -227630.360 10 0 61025 53100.00000 0 18329060.632 -17332615.563 -3453202.144 10 0 61025 54000.00000 0 17781908.599 -16975318.253 -6611317.424 10 0 61025 54900.00000 0 17032883.731 -16273683.153 -9640223.032 10 0 61025 55800.00000 0 16139356.748 -15215535.356 -12480653.707 10 0 61025 56700.00000 0 15161690.456 -13801935.955 -15077018.091 10 0 61025 57600.00000 0 14160560.336 -12047380.539 -17378511.762 10 0 61025 58500.00000 0 13194278.070 -9979433.704 -19340132.971 10 0 61025 59400.00000 0 12316234.084 -7637813.929 -20923579.186 10 0 61025 60300.00000 0 11572569.717 -5072967.195 -22098005.446 10 0 61025 61200.00000 0 11000179.314 -2344190.004 -22840628.906 10 0 61025 62100.00000 0 10625127.666 482618.169 -23137167.697 10 0 61025 63000.00000 0 10461549.694 3337477.264 -22982106.146 10 0 61025 63900.00000 0 10511077.972 6149016.746 -22378782.349 10 0 61025 64800.00000 0 10762820.482 8847219.742 -21339298.038 10 0 61025 65700.00000 0 11193887.187 11366105.979 -19884254.436 10 0 61025 66600.00000 0 11770440.443 13646241.604 -18042321.380 10 0 61025 67500.00000 0 12449222.049 15636972.135 -15849650.253 10 0 61025 68400.00000 0 13179489.859 17298287.241 -13349144.189 10 0 61025 69300.00000 0 13905279.975 18602242.121 -10589601.613 10 0 61025 70200.00000 0 14567897.508 19533879.407 -7624751.304 10 0 61025 71100.00000 0 15108529.944 20091616.741 -4512198.889 10 0 61025 72000.00000 0 15470872.879 20287087.556 -1312305.953 10 0 61025 72900.00000 0 15603658.080 20144445.306 1912976.231 10 0 61025 73800.00000 0 15462978.694 19699163.321 5101296.058 10 0 61025 74700.00000 0 15014315.428 18996382.966 8191091.763 10 0 61025 75600.00000 0 14234180.410 18088880.738 11122760.654 10 0 61025 76500.00000 0 13111311.429 17034739.938 13839786.519 10 0 61025 77400.00000 0 11647367.831 15894823.942 16289805.384 10 0 61025 78300.00000 0 9857099.590 14730155.570 18425591.301 10 0 61025 79200.00000 0 7767982.519 13599310.381 20205945.435 10 0 61025 80100.00000 0 5419333.727 12555930.610 21596473.409 10 0 61025 81000.00000 0 2860942.303 11646461.464 22570237.762 10 0 61025 81900.00000 0 151269.430 10908202.336 23108274.286 10 0 61025 82800.00000 0 -2644710.709 10367752.947 23199962.958 10 0 61025 83700.00000 0 -5457943.246 10039918.726 22843246.332 10 0 61025 84600.00000 0 -8217901.012 9927121.424 22044690.387 10 0 61025 85500.00000 0 -10855264.105 10019340.786 20819385.116 10 0 61026 0.00000 0 -13304561.989 10294591.641 19190684.771 10 0 61026 900.00000 0 -15506671.526 10719919.134 17189789.178 10 0 61026 1800.00000 0 -17411064.643 11252872.676 14855173.559 10 0 61026 2700.00000 0 -18977716.132 11843399.911 12231872.110 10 0 61026 3600.00000 0 -20178587.512 12436082.836 9370628.573 10 0 61026 4500.00000 0 -20998624.273 12972623.414 6326927.402 10 0 61026 5400.00000 0 -21436222.147 13394474.199 3159922.986 10 0 61026 6300.00000 0 -21503140.360 13645502.097 -68712.860 10 0 61026 7200.00000 0 -21223863.339 13674570.842 -3296002.362 10 0 61026 8100.00000 0 -20634436.165 13437930.137 -6458907.452 10 0 61026 9000.00000 0 -19780822.161 12901306.911 -9495583.459 10 0 61026 9900.00000 0 -18716852.194 12041606.464 -12346613.876 10 0 61026 10800.00000 0 -17501853.465 10848147.839 -14956199.373 10 0 61026 11700.00000 0 -16198059.977 9323377.931 -17273275.057 10 0 61026 12600.00000 0 -14867916.616 7483031.627 -19252531.601 10 0 61026 13500.00000 0 -13571393.446 5355729.548 -20855318.167 10 0 61026 14400.00000 0 -12363426.228 2982029.582 -22050407.984 10 0 61026 15300.00000 0 -11291593.276 412972.310 -22814610.789 10 0 61026 16200.00000 0 -10394128.014 -2291817.746 -23133220.059 10 0 61026 17100.00000 0 -9698351.405 -5066394.058 -23000286.875 10 0 61026 18000.00000 0 -9219589.757 -7841016.918 -22418716.234 10 0 61026 18900.00000 0 -8960621.929 -10544841.943 -21400185.532 10 0 61026 19800.00000 0 -8911676.862 -13108654.885 -19964888.776 10 0 61026 20700.00000 0 -9050978.603 -15467538.067 -18141113.612 10 0 61026 21600.00000 0 -9345812.626 -17563357.503 -15964661.573 10 0 61026 22500.00000 0 -9754065.271 -19346968.085 -13478124.877 10 0 61026 23400.00000 0 -10226168.520 -20780046.748 -10730035.727 10 0 61026 24300.00000 0 -10707365.685 -21836479.802 -7773906.196 10 0 61026 25200.00000 0 -11140200.865 -22503249.697 -4667178.524 10 0 61026 26100.00000 0 -11467126.325 -22780787.639 -1470106.988 10 0 61026 27000.00000 0 -11633117.871 -22682780.744 1755406.706 10 0 61026 27900.00000 0 -11588188.755 -22235445.065 4947002.223 10 0 61026 28800.00000 0 -11289697.566 -21476297.473 8043051.274 10 0 61026 29700.00000 0 -10704354.651 -20452479.580 10983828.380 10 0 61026 30600.00000 0 -9809844.524 -19218704.802 13712640.795 10 0 61026 31500.00000 0 -8595997.618 -17834914.279 16176897.695 10 0 61026 32400.00000 0 -7065463.342 -16363738.768 18329100.230 10 0 61026 33300.00000 0 -5233856.563 -14867870.871 20127735.659 10 0 61026 34200.00000 0 -3129370.857 -13407455.141 21538060.433 10 0 61026 35100.00000 0 -791873.146 -12037602.563 22532758.992 10 0 61026 36000.00000 0 1728485.050 -10806130.680 23092466.942 10 0 61026 36900.00000 0 4373085.104 -9751621.741 23206149.254 10 0 61026 37800.00000 0 7077015.656 -8901878.515 22871326.250 10 0 61026 38700.00000 0 9771517.430 -8272841.702 22094142.234 10 0 61026 39600.00000 0 12386600.652 -7868014.542 20889273.976 10 0 61026 40500.00000 0 14853729.515 -7678419.906 19279678.645 10 0 61026 41400.00000 0 17108464.560 -7683093.594 17296183.428 10 0 61026 42300.00000 0 19092954.336 -7850095.544 14976921.862 10 0 61026 43200.00000 0 20758172.835 -8137999.002 12366624.853 10 0 61026 44100.00000 0 22065808.497 -8497797.278 9515777.432 10 0 61026 45000.00000 0 22989724.079 -8875149.468 6479655.438 10 0 61026 45900.00000 0 23516923.850 -9212871.223 3317259.336 10 0 61026 46800.00000 0 23647984.857 -9453565.121 90165.262 10 0 61026 47700.00000 0 23396931.496 -9542278.116 -3138684.075 10 0 61026 48600.00000 0 22790556.522 -9429071.256 -6306223.958 10 0 61026 49500.00000 0 21867215.643 -9071389.760 -9350521.573 10 0 61026 50400.00000 0 20675146.039 -8436129.460 -12212012.363 10 0 61026 51300.00000 0 19270380.237 -7501308.372 -14834691.947 10 0 61026 52200.00000 0 17714344.765 -6257269.143 -17167237.569 10 0 61026 53100.00000 0 16071247.048 -4707358.542 -19164034.559 10 0 61026 54000.00000 0 14405363.299 -2868053.128 -20786085.622 10 0 61026 54900.00000 0 12778344.323 -768524.477 -22001783.627 10 0 61026 55800.00000 0 11246655.094 1550338.065 -22787531.920 10 0 61026 56700.00000 0 9859257.556 4037405.543 -23128199.915 10 0 61026 57600.00000 0 8655634.993 6633225.366 -23017405.600 10 0 61026 58500.00000 0 7664240.885 9272293.224 -22457620.575 10 0 61026 59400.00000 0 6901436.223 11885584.333 -21460097.179 10 0 61026 60300.00000 0 6370957.818 14403236.749 -20044621.063 10 0 61026 61200.00000 0 6063937.010 16757273.684 -18239096.151 10 0 61026 62100.00000 0 5959464.592 18884250.851 -16078972.226 10 0 61026 63000.00000 0 6025674.540 20727718.825 -13606528.350 10 0 61026 63900.00000 0 6221297.473 22240398.839 -10870027.945 10 0 61026 64800.00000 0 6497615.301 23385983.248 -7922763.543 10 0 61026 65700.00000 0 6800732.316 24140488.141 -4822010.943 10 0 61026 66600.00000 0 7074065.383 24493104.595 -1627913.905 10 0 61026 67500.00000 0 7260947.509 24446516.306 1597678.725 10 0 61026 68400.00000 0 7307235.227 24016673.411 4792401.155 10 0 61026 69300.00000 0 7163810.763 23232034.604 7894561.697 10 0 61026 70200.00000 0 6788875.098 22132311.504 10844315.024 10 0 61026 71100.00000 0 6149937.122 20766768.798 13584794.538 10 0 61026 72000.00000 0 5225416.915 19192151.492 16063184.923 10 0 61026 72900.00000 0 4005797.255 17470325.329 18231716.489 10 0 61026 73800.00000 0 2494275.816 15665727.309 20048564.330 10 0 61026 74700.00000 0 706890.708 13842730.575 21478637.135 10 0 61026 75600.00000 0 -1327886.858 12063030.995 22494242.312 10 0 61026 76500.00000 0 -3570077.801 10383161.651 23075615.998 10 0 61026 77400.00000 0 -5969602.526 8852236.378 23211308.496 10 0 61026 78300.00000 0 -8468115.318 7510014.422 22898417.811 10 0 61026 79200.00000 0 -11001193.340 6385365.631 22142666.038 10 0 61026 80100.00000 0 -13500793.052 5495199.834 20958315.703 10 0 61026 81000.00000 0 -15897875.461 4843905.593 19367925.537 10 0 61026 81900.00000 0 -18125093.847 4423323.102 17401947.792 10 0 61026 82800.00000 0 -20119433.951 4213254.277 15098171.989 10 0 61026 83700.00000 0 -21824697.339 4182490.882 12501022.918 10 0 61026 84600.00000 0 -23193723.959 4290319.701 9660723.776 10 0 61026 85500.00000 0 -24190259.466 4488443.283 6632338.478 10 0 61027 0.00000 0 -24790386.828 4723236.390 3474710.463 10 0 61027 900.00000 0 -24983459.588 4938243.302 249316.231 10 0 61027 1800.00000 0 -24772493.903 5076809.242 -2980939.611 10 0 61027 2700.00000 0 -24174001.193 5084733.183 -6152968.885 10 0 61027 3600.00000 0 -23217265.471 4912826.656 -9204753.666 10 0 61027 4500.00000 0 -21943094.883 4519266.913 -12076584.165 10 0 61027 5400.00000 0 -20402099.773 3871641.073 -14712253.515 10 0 61027 6300.00000 0 -18652570.573 2948591.049 -17060183.326 10 0 61027 7200.00000 0 -16758046.566 1740986.397 -19074455.421 10 0 61027 8100.00000 0 -14784680.142 252572.918 -20715727.397 10 0 61027 9000.00000 0 -12798509.958 -1499932.132 -21952012.586 10 0 61027 9900.00000 0 -10862760.170 -3487303.076 -22759308.214 10 0 61027 10800.00000 0 -9035281.164 -5668807.521 -23122059.354 10 0 61027 11700.00000 0 -7366240.518 -7993703.884 -23033450.101 10 0 61027 12600.00000 0 -5896161.423 -10403170.473 -22495517.388 10 0 61027 13500.00000 0 -4654390.090 -12832583.711 -21519086.816 10 0 61027 14400.00000 0 -3658054.627 -15214048.470 -20123533.659 10 0 61027 15300.00000 0 -2911556.409 -17479073.337 -18336375.822 10 0 61027 16200.00000 0 -2406611.852 -19561278.134 -16192708.850 10 0 61027 17100.00000 0 -2122839.071 -21399020.407 -13734496.041 10 0 61027 18000.00000 0 -2028860.891 -22937831.721 -11009729.387 10 0 61027 18900.00000 0 -2083874.196 -24132563.341 -8071479.254 10 0 61027 19800.00000 0 -2239616.457 -24949153.708 -4976852.457 10 0 61027 20700.00000 0 -2442644.284 -25365946.390 -1785879.798 10 0 61027 21600.00000 0 -2636826.536 -25374506.323 1439645.043 10 0 61027 22500.00000 0 -2765946.387 -24979903.105 4637352.979 10 0 61027 23400.00000 0 -2776303.063 -24200452.253 7745491.009 10 0 61027 24300.00000 0 -2619204.690 -23066927.415 10704095.910 10 0 61027 25200.00000 0 -2253248.874 -21621277.881 13456129.044 10 0 61027 26100.00000 0 -1646296.830 -19914905.649 15948552.335 10 0 61027 27000.00000 0 -777059.708 -18006573.482 18133326.814 10 0 61027 27900.00000 0 363768.293 -15960030.023 19968316.767 10 0 61027 28800.00000 0 1772876.918 -13841449.108 21418084.255 10 0 61027 29700.00000 0 3434233.904 -11716787.211 22454560.526 10 0 61027 30600.00000 0 5319511.858 -9649166.220 23057582.848 10 0 61027 31500.00000 0 7389032.427 -7696387.713 23215287.183 10 0 61027 32400.00000 0 9593191.526 -5908679.649 22924349.276 10 0 61027 33300.00000 0 11874309.934 -4326767.404 22190068.816 10 0 61027 34200.00000 0 14168836.029 -2980348.449 21026293.644 10 0 61027 35100.00000 0 16409812.717 -1887034.061 19455183.378 10 0 61027 36000.00000 0 18529509.032 -1051802.896 17506814.415 10 0 61027 36900.00000 0 20462109.104 -466990.720 15218631.082 10 0 61027 37800.00000 0 22146347.631 -112818.611 12634750.581 10 0 61027 38700.00000 0 23527981.927 41560.426 9805132.493 10 0 61027 39600.00000 0 24561996.060 36538.497 6784626.681 10 0 61027 40500.00000 0 25214442.734 -79883.824 3631916.525 10 0 61027 41400.00000 0 25463842.840 -254366.742 408377.259 10 0 61027 42300.00000 0 25302080.706 -430736.990 -2823128.172 10 0 61027 43200.00000 0 24734754.260 -552622.729 -5999491.274 10 0 61027 44100.00000 0 23780962.622 -566103.835 -9058612.168 10 0 61027 45000.00000 0 22472538.038 -422262.263 -11940638.904 10 0 61027 45900.00000 0 20852753.478 -79520.971 -14589164.987 10 0 61027 46800.00000 0 18974560.249 494331.320 -16952358.993 10 0 61027 47700.00000 0 16898430.810 1320518.625 -18984001.520 10 0 61027 48600.00000 0 14689899.268 2408130.970 -20644407.025 10 0 61027 49500.00000 0 12416905.175 3753503.008 -21901210.941 10 0 61027 50400.00000 0 10147054.604 5340145.447 -22730005.679 10 0 61027 51300.00000 0 7944915.605 7139232.497 -23114812.925 10 0 61027 52200.00000 0 5869463.009 9110624.320 -23048383.460 10 0 61027 53100.00000 0 3971780.467 11204380.301 -22532319.731 10 0 61027 54000.00000 0 2293115.696 13362698.032 -21577020.349 10 0 61027 54900.00000 0 863369.077 15522194.921 -20201449.520 10 0 61027 55800.00000 0 -299923.404 17616435.162 -18432738.001 10 0 61027 56700.00000 0 -1192073.415 19578594.996 -16305625.539 10 0 61027 57600.00000 0 -1821173.249 21344153.984 -13861757.703 10 0 61027 58500.00000 0 -2207485.314 22853499.653 -11148852.726 10 0 61027 59400.00000 0 -2382317.821 24054337.274 -8219756.152 10 0 61027 60300.00000 0 -2386437.515 24903805.425 -5131402.889 10 0 61027 61200.00000 0 -2268089.242 25370210.835 -1943707.666 10 0 61027 62100.00000 0 -2080707.890 25434312.450 1281594.237 10 0 61027 63000.00000 0 -1880420.246 25090103.600 4482133.713 10 0 61027 63900.00000 0 -1723442.309 24345062.201 7596099.653 10 0 61027 64800.00000 0 -1663481.055 23219860.749 10563414.025 10 0 61027 65700.00000 0 -1749248.760 21747549.807 13326869.071 10 0 61027 66600.00000 0 -2022192.795 19972249.948 15833206.612 10 0 61027 67500.00000 0 -2514534.549 17947406.576 18034120.773 10 0 61027 68400.00000 0 -3247698.259 15733679.515 19887167.140 10 0 61027 69300.00000 0 -4231194.618 13396553.393 21356562.940 10 0 61027 70200.00000 0 -5462005.633 11003765.821 22413864.729 10 0 61027 71100.00000 0 -6924497.130 8622657.384 23038512.029 10 0 61027 72000.00000 0 -8590864.217 6317550.537 23218227.194 10 0 61027 72900.00000 0 -10422093.637 4147263.489 22949264.015 10 0 61027 73800.00000 0 -12369406.151 2162860.030 22236499.609 10 0 61027 74700.00000 0 -14376122.457 405727.210 21093366.459 10 0 61027 75600.00000 0 -16379878.661 -1093939.945 19541623.859 10 0 61027 76500.00000 0 -18315102.320 -2318183.460 17610970.615 10 0 61027 77400.00000 0 -20115648.575 -3261812.642 15338503.608 10 0 61027 78300.00000 0 -21717488.064 -3932395.779 12768029.753 10 0 61027 79200.00000 0 -23061334.977 -4349711.755 9949241.929 10 0 61027 80100.00000 0 -24095104.616 -4544682.596 6936772.581 10 0 61027 81000.00000 0 -24776095.828 -4557830.160 3789141.766 10 0 61027 81900.00000 0 -25072804.055 -4437320.976 567619.251 10 0 61027 82800.00000 0 -24966285.619 -4236681.477 -2664977.047 10 0 61027 83700.00000 0 -24451012.397 -4012281.010 -5845521.881 10 0 61027 84600.00000 0 -23535177.653 -3820690.814 -8911836.862 10 0 61027 85500.00000 0 -22240437.460 -3716033.413 -11803931.121 99